Stündliche Wetter Juchitepec de Mariano Riva Palacio

Heute, 3 März, Mittwoch

Zeit Temperatur Niederschläge Wind Luftdruck Luftfeuchtigkeit
00:00 +14°C° 0 mm 1 m/S 564 mmHg 61%
01:00 +13°C° 0 mm 1 m/S 564 mmHg 63%
02:00 +13°C° 0 mm 1 m/S 563 mmHg 66%
03:00 +12°C° 0 mm 1 m/S 563 mmHg 67%
04:00 +12°C° 0 mm 1 m/S 563 mmHg 69%
05:00 +11°C° 0 mm 1 m/S 562 mmHg 70%
06:00 +14°C° 0 mm 1 m/S 564 mmHg 63%
07:00 +16°C° 0 mm 1 m/S 565 mmHg 55%
08:00 +19°C° 0 mm 1 m/S 567 mmHg 48%
09:00 +21°C° 0 mm 1 m/S 567 mmHg 43%
10:00 +21°C° 0 mm 2 m/S 568 mmHg 37%
11:00 +24°C° 0 mm 2 m/S 568 mmHg 32%
12:00 +24°C° 0 mm 2 m/S 568 mmHg 32%
13:00 +25°C° 0 mm 2 m/S 567 mmHg 32%
14:00 +25°C° 0 mm 2 m/S 566 mmHg 31%
15:00 +24°C° 0 mm 2 m/S 566 mmHg 35%
16:00 +23°C° 0 mm 2 m/S 565 mmHg 39%
17:00 +20°C° 0 mm 2 m/S 565 mmHg 43%
18:00 +19°C° 0.1 mm 2 m/S 565 mmHg 46%
19:00 +19°C° 0.1 mm 1 m/S 566 mmHg 49%
20:00 +18°C° 0.1 mm 1 m/S 566 mmHg 52%
21:00 +18°C° 0 mm 1 m/S 566 mmHg 53%
22:00 +16°C° 0 mm 1 m/S 566 mmHg 54%
23:00 +15°C° 0 mm 0 m/S 566 mmHg 54%

Morgen, 4 März, Donnerstag

Zeit Temperatur Niederschläge Wind Luftdruck Luftfeuchtigkeit
00:00 +15°C° 0 mm 1 m/S 565 mmHg 57%
01:00 +14°C° 0 mm 1 m/S 565 mmHg 59%
02:00 +13°C° 0 mm 1 m/S 564 mmHg 62%
03:00 +13°C° 0 mm 1 m/S 564 mmHg 62%
04:00 +12°C° 0 mm 1 m/S 564 mmHg 63%
05:00 +12°C° 0 mm 1 m/S 564 mmHg 63%
06:00 +14°C° 0 mm 1 m/S 565 mmHg 55%
07:00 +16°C° 0 mm 1 m/S 566 mmHg 47%
08:00 +20°C° 0 mm 1 m/S 568 mmHg 39%
09:00 +21°C° 0 mm 1 m/S 568 mmHg 35%
10:00 +23°C° 0 mm 2 m/S 568 mmHg 31%
11:00 +25°C° 0 mm 2 m/S 569 mmHg 27%
12:00 +25°C° 0 mm 2 m/S 568 mmHg 26%
13:00 +26°C° 0 mm 2 m/S 568 mmHg 25%
14:00 +26°C° 0 mm 2 m/S 567 mmHg 25%
15:00 +25°C° 0 mm 2 m/S 566 mmHg 28%
16:00 +24°C° 0 mm 2 m/S 566 mmHg 32%
17:00 +21°C° 0 mm 2 m/S 565 mmHg 36%
18:00 +20°C° 0 mm 2 m/S 565 mmHg 41%
19:00 +18°C° 0 mm 2 m/S 564 mmHg 46%
20:00 +16°C° 0 mm 2 m/S 564 mmHg 51%
21:00 +16°C° 0 mm 1 m/S 564 mmHg 52%
22:00 +15°C° 0 mm 1 m/S 564 mmHg 52%
23:00 +15°C° 0 mm 1 m/S 564 mmHg 53%

übermorgen, 5 März, Freitag

Zeit Temperatur Niederschläge Wind Luftdruck Luftfeuchtigkeit
00:00 +14°C° 0 mm 1 m/S 563 mmHg 54%
01:00 +14°C° 0 mm 1 m/S 563 mmHg 55%
02:00 +13°C° 0 mm 1 m/S 563 mmHg 56%
03:00 +13°C° 0 mm 1 m/S 562 mmHg 56%
04:00 +13°C° 0 mm 1 m/S 562 mmHg 56%
05:00 +12°C° 0 mm 1 m/S 562 mmHg 56%
06:00 +15°C° 0 mm 1 m/S 563 mmHg 48%
07:00 +18°C° 0 mm 1 m/S 565 mmHg 41%
08:00 +20°C° 0 mm 1 m/S 566 mmHg 33%
09:00 +22°C° 0 mm 1 m/S 567 mmHg 29%
10:00 +24°C° 0 mm 2 m/S 567 mmHg 24%
11:00 +26°C° 0 mm 3 m/S 568 mmHg 20%
12:00 +27°C° 0 mm 3 m/S 567 mmHg 19%
13:00 +27°C° 0 mm 3 m/S 567 mmHg 19%
14:00 +28°C° 0 mm 3 m/S 566 mmHg 18%
15:00 +26°C° 0 mm 2 m/S 566 mmHg 21%
16:00 +25°C° 0 mm 2 m/S 565 mmHg 23%
17:00 +24°C° 0 mm 1 m/S 565 mmHg 26%
18:00 +22°C° 0 mm 1 m/S 564 mmHg 31%
19:00 +19°C° 0 mm 2 m/S 564 mmHg 35%
20:00 +17°C° 0 mm 2 m/S 564 mmHg 40%
21:00 +16°C° 0 mm 1 m/S 564 mmHg 43%
22:00 +16°C° 0 mm 1 m/S 564 mmHg 45%
23:00 +15°C° 0 mm 1 m/S 564 mmHg 48%

6 März, Samstag

Zeit Temperatur Niederschläge Wind Luftdruck Luftfeuchtigkeit
00:00 +14°C° 0 mm 1 m/S 563 mmHg 55%
01:00 +13°C° 0 mm 1 m/S 563 mmHg 61%
02:00 +12°C° 0 mm 2 m/S 562 mmHg 68%
03:00 +12°C° 0 mm 2 m/S 562 mmHg 71%
04:00 +12°C° 0 mm 2 m/S 562 mmHg 74%
05:00 +10°C° 0 mm 2 m/S 562 mmHg 78%
06:00 +13°C° 0 mm 1 m/S 563 mmHg 70%
07:00 +15°C° 0 mm 1 m/S 565 mmHg 63%
08:00 +18°C° 0 mm 1 m/S 566 mmHg 55%
09:00 +20°C° 0 mm 1 m/S 567 mmHg 49%
10:00 +20°C° 0 mm 2 m/S 567 mmHg 43%
11:00 +23°C° 0 mm 2 m/S 567 mmHg 38%
12:00 +24°C° 0.1 mm 2 m/S 567 mmHg 36%
13:00 +24°C° 0.1 mm 2 m/S 566 mmHg 35%
14:00 +25°C° 0.1 mm 2 m/S 566 mmHg 33%
15:00 +24°C° 0.1 mm 2 m/S 565 mmHg 35%
16:00 +23°C° 0.1 mm 2 m/S 565 mmHg 38%
17:00 +20°C° 0.1 mm 2 m/S 564 mmHg 40%
18:00 +18°C° 0.5 mm 2 m/S 564 mmHg 49%
19:00 +16°C° 0.5 mm 3 m/S 564 mmHg 58%
20:00 +13°C° 0.5 mm 3 m/S 564 mmHg 67%
21:00 +14°C° 0 mm 2 m/S 564 mmHg 65%
22:00 +14°C° 0 mm 1 m/S 564 mmHg 63%
23:00 +13°C° 0 mm 1 m/S 564 mmHg 61%

7 März, Sonntag

Zeit Temperatur Niederschläge Wind Luftdruck Luftfeuchtigkeit
00:00 +13°C° 0 mm 1 m/S 563 mmHg 65%
01:00 +12°C° 0 mm 1 m/S 563 mmHg 68%
02:00 +12°C° 0 mm 1 m/S 563 mmHg 71%
03:00 +12°C° 0 mm 1 m/S 562 mmHg 73%
04:00 +11°C° 0 mm 1 m/S 562 mmHg 75%
05:00 +11°C° 0 mm 1 m/S 562 mmHg 77%
06:00 +13°C° 0 mm 1 m/S 564 mmHg 68%
07:00 +16°C° 0 mm 1 m/S 565 mmHg 58%
08:00 +19°C° 0 mm 1 m/S 567 mmHg 48%
09:00 +21°C° 0 mm 1 m/S 567 mmHg 43%
10:00 +23°C° 0 mm 2 m/S 568 mmHg 37%
11:00 +24°C° 0 mm 3 m/S 568 mmHg 31%
12:00 +25°C° 0.1 mm 2 m/S 567 mmHg 31%
13:00 +25°C° 0.1 mm 2 m/S 567 mmHg 30%
14:00 +25°C° 0.1 mm 2 m/S 566 mmHg 30%
15:00 +24°C° 0.2 mm 2 m/S 566 mmHg 33%
16:00 +23°C° 0.2 mm 2 m/S 565 mmHg 37%
17:00 +20°C° 0.2 mm 3 m/S 565 mmHg 41%
18:00 +19°C° 0.8 mm 3 m/S 565 mmHg 48%
19:00 +17°C° 0.8 mm 3 m/S 565 mmHg 55%
20:00 +15°C° 0.8 mm 2 m/S 565 mmHg 63%
21:00 +15°C° 0 mm 2 m/S 565 mmHg 62%
22:00 +15°C° 0 mm 2 m/S 565 mmHg 61%
23:00 +14°C° 0 mm 1 m/S 565 mmHg 60%

8 März, Montag

Zeit Temperatur Niederschläge Wind Luftdruck Luftfeuchtigkeit
00:00 +14°C° 0 mm 1 m/S 565 mmHg 61%
01:00 +13°C° 0 mm 1 m/S 564 mmHg 63%
02:00 +13°C° 0 mm 1 m/S 564 mmHg 64%
03:00 +12°C° 0 mm 1 m/S 564 mmHg 66%
04:00 +12°C° 0 mm 1 m/S 564 mmHg 67%
05:00 +12°C° 0 mm 1 m/S 564 mmHg 69%
06:00 +14°C° 0 mm 1 m/S 565 mmHg 62%
07:00 +16°C° 0 mm 1 m/S 567 mmHg 56%
08:00 +19°C° 0 mm 1 m/S 568 mmHg 49%
09:00 +21°C° 0 mm 1 m/S 568 mmHg 42%
10:00 +21°C° 0 mm 2 m/S 569 mmHg 35%
11:00 +24°C° 0 mm 2 m/S 569 mmHg 28%
12:00 +25°C° 0 mm 3 m/S 569 mmHg 26%
13:00 +25°C° 0 mm 3 m/S 568 mmHg 25%
14:00 +26°C° 0 mm 3 m/S 568 mmHg 24%
15:00 +25°C° 0 mm 2 m/S 567 mmHg 26%
16:00 +24°C° 0 mm 2 m/S 567 mmHg 29%
17:00 +23°C° 0 mm 1 m/S 566 mmHg 31%
18:00 +21°C° 0 mm 1 m/S 566 mmHg 36%
19:00 +19°C° 0 mm 2 m/S 566 mmHg 40%
20:00 +17°C° 0 mm 2 m/S 566 mmHg 45%
21:00 +18°C° 0 mm 1 m/S 566 mmHg 46%
22:00 +18°C° 0 mm 1 m/S 566 mmHg 46%
23:00 +16°C° 0 mm 1 m/S 566 mmHg 47%
Mehr zeigen

Wir brauchen deine Erlaubnis

Meteoprog und unser Service Anbieter werden persönliche Daten aufbewahren, so wie Cookies, Geräte Bezeichnung oder ähnliche Technologien von deinem Gerät und Prozess, so wie Persönliche Daten Inhalte und Werbungen, genauso wie social Media und den Verkehr zu analysieren.

  • Aufbewahrung und/oder Zugang zu deiner Geräte Informationen.

    Cookies, Geräte Bezeichnung oder andere Informationen, können aufbewahrt oder Zugang zu deinem Gerät erhalten, für den Grund, der oben angegeben wird.

  • Personalisierte Werbung und Inhalte, Messungen, Einblick in das Publikum und Produkt Entwicklung.

    Werbungen und Inhalte können personalisiert werden, basierend auf ein Profil. Mehr Daten können besser personalisierte Werbungen und Inhalte hinzufügen. Werbung und Inhalte können gezeigt und gemessen werden. Einblicke über das Publikum, welche die Werbung gesehen haben und den Inhalt, können abgeleitet werden. So wie Daten können genutzt werden, um es zu verbessern oder die Benutzer Erfahrung zu verbessern das System und die Software.

Wenn du “Ich stimme zu” klickst, erlaubst du uns, die Cookies zu benutzen die Geräte Bezeichnung, den Web oder ähnliche Technologien zu benutzen. Deine Settings, können in deinem Gerät bei deinem Browser geändert werden.

Für den bestimmten Zweck, berechtigten Interessen beruhen darauf, mehr als auf den Inhalt. Du kannst mehr darüber in unseren Privaten und Cookie Politik lesen.